[[{"header":{"parameterUnit":"m.s-1","parameterCategory":1,"la1":30.2992,"la2":30.254,"lo1":-89.0895,"lo2":-89.0443,"dy":0.0025,"dx":0.0025,"nx":19,"ny":19,"refTime":"2026-04-05T09:00:00:Z","depth":0,"parameterNumber":2,"parameterNumberName":"U-component_of_WINDS"},"data":[0,0,0,-3.0272,-3.0274,-3.0331,-3.0331,-3.0432,-3.0433,0,0,0,0,0,0,0,0,0,0,0,-3.0273,-3.0274,-3.0272,-3.0274,-3.0331,-3.0331,-3.0432,-3.0433,0,0,0,0,0,0,0,0,0,0,0,-3.0272,-3.0273,-3.0275,-3.0274,-3.0331,-3.0331,-3.0432,-3.0379,0,0,0,0,0,0,0,0,0,0,-3.0318,-3.0336,-3.0273,-3.0275,-3.0275,-3.0331,-3.0331,-3.0376,-3.0382,-3.0419,0,-3.0456,0,-3.0446,-3.0442,-3.0442,0,0,0,-3.0261,-3.0331,-3.033,-3.0275,-3.0275,-3.0331,-3.0301,-3.0379,-3.0386,-3.0427,-3.0457,-3.046,-3.0448,-3.0443,-3.0443,-3.0698,-3.07,0,0,-3.0258,-3.0292,-3.0325,-3.0336,-3.0329,-3.03,-3.0303,-3.0383,-3.0418,-3.0457,-3.0462,-3.045,-3.0444,-3.0445,-3.0696,-3.0698,0,0,0,-3.0257,-3.0291,-3.0287,-3.0332,-3.0341,-3.0302,-3.0306,-3.0414,-3.041,-3.0463,-3.0451,-3.0444,-3.0446,-3.0694,-3.0697,-3.082,0,0,0,-3.0255,-3.029,-3.0287,-3.0309,-3.034,-3.0378,-3.0336,-3.0405,-3.0412,-3.045,-3.0445,-3.0447,-3.0692,-3.0696,-3.0813,-3.0874,0,0,0,-3.0263,-3.0291,-3.0305,-3.031,-3.0336,-3.0376,-3.0376,-3.0405,-3.0406,-3.0443,-3.0448,-3.0691,-3.0695,-3.0806,-3.0862,-3.0952,0,0,0,-3.0281,-3.0414,-3.0308,-3.0451,-3.0336,-3.0451,-3.0375,-3.0459,-3.0505,-3.0445,-3.0692,-3.0697,-3.0804,-3.0855,-3.0945,-3.1035,-3.1075,0,0,-3.0468,-3.0438,-3.0519,-3.0426,-3.0569,-3.044,-3.0601,-3.061,-3.0582,-3.0661,-3.0666,-3.0815,-3.0862,-3.095,-3.1285,-3.1318,0,0,0,-3.059,-3.065,-3.068,-3.0725,-3.0735,-3.0748,-3.0729,-3.0732,-3.0797,-3.0629,-3.0869,-3.0896,-3.0947,-3.0988,-3.1016,-3.1058,-3.0717,-3.0716,-3.0716,-3.0906,-3.0862,-3.0994,-3.0957,-3.1001,-3.0979,-3.1011,-3.1012,-3.0954,-3.1012,-3.1036,-3.1244,-3.1294,-3.1315,-3.1359,-3.1078,-3.1078,-3.1079,-3.1079,-3.1178,-3.1255,-3.1174,-3.1273,-3.1226,-3.1308,-3.1291,-3.1248,-3.1318,-3.1223,-3.1265,-3.1167,-3.1352,-3.1388,-3.1088,-3.1086,-3.1085,-3.1084,-3.1084,-3.1382,-3.1411,-3.1412,-3.1472,-3.1523,-3.1479,-3.155,-3.1503,-3.146,-3.1502,-3.1523,-3.1521,-3.1514,-3.1514,-3.1515,-3.1516,-3.1517,-3.1517,-3.1518,-3.1595,-3.1591,-3.1657,-3.1677,-3.1699,-3.1722,-3.17,-3.1721,-3.1732,-3.1692,-3.1692,-3.163,-3.1377,-3.1316,-3.1529,-3.1527,-3.1525,-3.1524,-3.1523,-3.1891,-3.1816,-3.1917,-3.194,-3.1959,-3.2013,-3.1951,-3.1997,-3.2007,-3.2044,-3.1971,-3.1791,-3.1757,-3.1735,-3.1684,-3.1979,-3.1979,-3.1979,-3.1979,-3.2065,-3.2042,-3.2135,-3.2174,-3.2206,-3.216,-3.2276,-3.2259,-3.223,-3.2234,-3.2183,-3.2111,-3.209,-3.2068,-3.2039,-3.1991,-3.2358,-3.2358,-3.2359,-3.2245,-3.2223,-3.2332,-3.2301,-3.2312,-3.2322,-3.243,-3.2478,-3.2429,-3.2373,-3.2236,-3.222,-3.2102,-3.2066,-3.201,-3.1965,-3.1876,0,0]},{"header":{"parameterUnit":"m.s-1","parameterCategory":1,"la1":30.2992,"la2":30.254,"lo1":-89.0895,"lo2":-89.0443,"dy":0.0025,"dx":0.0025,"nx":19,"ny":19,"refTime":"2026-04-05T09:00:00:Z","depth":0,"parameterNumber":3,"parameterNumberName":"V-component_of_WINDS"},"data":[0,0,0,-6.8362,-6.8366,-6.8545,-6.8546,-6.8785,-6.8787,0,0,0,0,0,0,0,0,0,0,0,-6.832,-6.8322,-6.8362,-6.8366,-6.8545,-6.8546,-6.8785,-6.8787,0,0,0,0,0,0,0,0,0,0,0,-6.8319,-6.8321,-6.8324,-6.8367,-6.8545,-6.8546,-6.8784,-6.8644,0,0,0,0,0,0,0,0,0,0,-6.8468,-6.8441,-6.8321,-6.8324,-6.8368,-6.8545,-6.8546,-6.8637,-6.8653,-6.871,0,-6.8767,0,-6.8782,-6.8805,-6.8805,0,0,0,-6.8357,-6.8428,-6.8467,-6.8324,-6.837,-6.8545,-6.8462,-6.8646,-6.8664,-6.8731,-6.8771,-6.8779,-6.8786,-6.8806,-6.8807,-6.9176,-6.9178,0,0,-6.8347,-6.8357,-6.8455,-6.8479,-6.8457,-6.8456,-6.8467,-6.8656,-6.8699,-6.8772,-6.8785,-6.879,-6.8808,-6.881,-6.9174,-6.9177,0,0,0,-6.8325,-6.835,-6.8384,-6.847,-6.8502,-6.8462,-6.8475,-6.869,-6.8701,-6.8787,-6.8792,-6.8809,-6.8813,-6.9172,-6.9175,-6.9292,0,0,0,-6.8319,-6.8337,-6.838,-6.8388,-6.8499,-6.8599,-6.8505,-6.8688,-6.8709,-6.8791,-6.8809,-6.8815,-6.9169,-6.9173,-6.9284,-6.9346,0,0,0,-6.8304,-6.8335,-6.8366,-6.8388,-6.8466,-6.8596,-6.8617,-6.8692,-6.8713,-6.8806,-6.8816,-6.9168,-6.9173,-6.9277,-6.9334,-6.9446,0,0,0,-6.829,-6.8466,-6.8368,-6.8565,-6.8465,-6.8669,-6.8616,-6.8766,-6.886,-6.8811,-6.917,-6.9175,-6.9274,-6.9326,-6.9438,-6.9542,-6.9587,0,0,-6.8517,-6.8493,-6.8609,-6.8526,-6.8751,-6.864,-6.888,-6.8955,-6.8953,-6.91,-6.9109,-6.9287,-6.9333,-6.9444,-6.9833,-6.9869,0,0,0,-6.8684,-6.8767,-6.8824,-6.8916,-6.8979,-6.9038,-6.9075,-6.9102,-6.9228,-6.9033,-6.9357,-6.9384,-6.9449,-6.9498,-6.9529,-6.9583,-6.9198,-6.9197,-6.9197,-6.9017,-6.9008,-6.9197,-6.921,-6.9299,-6.9336,-6.9406,-6.9448,-6.941,-6.9487,-6.9531,-6.9769,-6.9827,-6.985,-6.9907,-6.9585,-6.9586,-6.9586,-6.9586,-6.9348,-6.9463,-6.9411,-6.9577,-6.9564,-6.9701,-6.9742,-6.971,-6.9834,-6.9735,-6.9792,-6.9685,-6.9889,-6.9938,-6.9595,-6.9594,-6.9592,-6.9592,-6.9591,-6.9565,-6.9619,-6.9652,-6.9783,-6.9884,-6.9887,-7.0009,-6.9992,-6.9976,-7.0033,-7.0076,-7.0074,-7.007,-7.0055,-7.0056,-7.0056,-7.0057,-7.0058,-7.0058,-6.9778,-6.9811,-6.9918,-7.0,-7.0056,-7.0127,-7.0165,-7.0219,-7.0273,-7.025,-7.025,-7.0204,-6.9912,-6.9839,-7.0071,-7.0069,-7.0067,-7.0066,-7.0065,-7.0117,-7.0038,-7.0203,-7.026,-7.0354,-7.0454,-7.0431,-7.0541,-7.0582,-7.0642,-7.0583,-7.037,-7.0344,-7.032,-7.0259,-7.0586,-7.0586,-7.0586,-7.0586,-7.0301,-7.0286,-7.0451,-7.0542,-7.0629,-7.0625,-7.0808,-7.0838,-7.0856,-7.088,-7.083,-7.0747,-7.0723,-7.0711,-7.0678,-7.0621,-7.1033,-7.1034,-7.1034,-7.0508,-7.0501,-7.0663,-7.0683,-7.0754,-7.0815,-7.0986,-7.1089,-7.1092,-7.1052,-7.0898,-7.0879,-7.0746,-7.0703,-7.066,-7.061,-7.0505,0,0]}]]